FW3754 Weather Reports


time (UTC)temp
C
wind
direction
speed
KPH
gust
KPH
rain 1hr
cm
rain 24hr
cm
rain mn
cm
humidity
%
barometer
mb
20210723150212 31 294 4.8 0.0 0.00 0.00 0.00 73 1019.2
20210723144751 31 264 4.8 0.0 0.00 0.00 0.00 70 1019.2
20210723143113 31 296 4.8 0.0 0.00 0.00 0.00 73 1019.3
20210723141600 31 184 3.2 0.0 0.00 0.00 0.00 73 1019.4
20210723140101 30 198 3.2 0.0 0.00 0.00 0.00 75 1019.4
20210723134549 30 257 3.2 0.0 0.00 0.00 0.00 78 1019.5
20210723133037 29 302 1.6 0.0 0.00 0.00 0.00 78 1019.7
20210723131531 29 313 3.2 0.0 0.00 0.00 0.00 81 1019.7
20210723130018 29 13 4.8 0.0 0.00 0.00 0.00 81 1019.8
20210723124539 28 342 4.8 0.0 0.00 0.00 0.00 83 1019.7
20210723123054 28 346 4.8 0.0 0.00 0.00 0.00 84 1019.6
20210723121550 28 308 4.8 0.0 0.00 0.00 0.00 85 1019.5
20210723120039 27 306 4.8 0.0 0.00 0.00 0.00 86 1019.2
20210723114542 27 217 3.2 0.0 0.00 0.00 0.00 87 1019.2
20210723113019 27 217 0.0 0.0 0.00 0.00 0.00 87 1019.0
20210723111530 27 217 1.6 0.0 0.00 0.00 0.00 87 1018.9
20210723110038 27 194 0.0 0.0 0.00 0.00 0.00 87 1018.8
20210723104518 27 194 1.6 0.0 0.00 0.00 0.00 87 1018.7
20210723103019 27 190 0.0 0.0 0.00 0.00 0.00 87 1018.6
20210723101513 27 190 1.6 0.0 0.00 0.00 0.00 87 1018.5
20210723100057 27 190 0.0 0.0 0.00 0.00 0.00 87 1018.4
20210723094520 27 190 0.0 0.0 0.00 0.00 0.00 87 1018.2
20210723093040 27 190 0.0 0.0 0.00 0.00 0.00 86 1018.2
20210723091514 27 190 0.0 0.0 0.00 0.00 0.00 85 1018.2
20210723090024 27 190 0.0 0.0 0.00 0.00 0.00 85 1018.1
20210723084520 27 189 0.0 0.0 0.00 0.00 0.00 85 1018.0
20210723083005 27 189 0.0 0.0 0.00 0.00 0.00 85 1017.9
20210723081504 27 189 0.0 0.0 0.00 0.00 0.00 84 1017.9
20210723080008 27 189 0.0 0.0 0.00 0.00 0.00 85 1017.9
20210723074502 27 189 0.0 0.0 0.00 0.00 0.00 84 1018.0
20210723073134 27 189 0.0 0.0 0.00 0.00 0.00 84 1018.1
20210723071733 27 189 0.0 0.0 0.00 0.00 0.00 83 1018.2
20210723070215 27 190 0.0 0.0 0.00 0.00 0.00 83 1018.5
20210723064711 28 190 0.0 0.0 0.00 0.00 0.00 82 1018.7
20210723063154 28 190 0.0 0.0 0.00 0.00 0.00 82 1018.7
20210723061703 28 189 1.6 0.0 0.00 0.00 0.00 82 1018.9
20210723060343 28 193 3.2 0.0 0.00 0.00 0.00 81 1018.9
20210723054651 28 150 1.6 0.0 0.00 0.00 0.00 80 1018.9
20210723053219 28 146 3.2 0.0 0.00 0.00 0.00 80 1019.1
20210723051600 28 161 0.0 0.0 0.00 0.00 0.00 81 1019.3
20210723050247 28 161 0.0 0.0 0.00 0.00 0.00 81 1019.4
20210723044648 28 159 1.6 0.0 0.00 0.00 0.00 80 1019.6
20210723043124 28 183 3.2 0.0 0.00 0.00 0.00 81 1019.6
20210723041629 28 121 3.2 0.0 0.00 0.00 0.00 81 1019.7
20210723040059 28 132 3.2 0.0 0.00 0.00 0.00 81 1019.9
20210723034613 29 173 3.2 0.0 0.00 0.00 0.03 80 1020.0
20210723033051 29 166 1.6 0.0 0.00 0.00 0.03 79 1020.3
20210723031605 29 134 3.2 0.0 0.00 0.00 0.03 79 1020.4
20210723030123 29 139 4.8 0.0 0.00 0.00 0.03 79 1020.4
20210723024551 29 123 4.8 0.0 0.00 0.00 0.03 78 1020.5
20210723023125 30 130 6.4 0.0 0.00 0.00 0.03 78 1020.4
20210723021700 30 142 6.4 0.0 0.00 0.00 0.03 78 1020.3
20210723020053 30 133 3.2 0.0 0.00 0.00 0.03 77 1020.2
20210723014643 30 137 8.0 0.0 0.00 0.00 0.03 77 1019.5
20210723013045 30 135 8.0 0.0 0.00 0.00 0.03 76 1019.6
20210723011602 30 121 6.4 0.0 0.00 0.00 0.03 75 1019.6
20210723010106 30 142 6.4 0.0 0.00 0.00 0.03 75 1019.5
20210723004540 30 142 8.0 0.0 0.00 0.00 0.03 74 1019.4
20210723003142 31 142 8.0 0.0 0.00 0.00 0.03 74 1019.6
20210723001604 31 141 6.4 0.0 0.00 0.00 0.03 73 1019.4
20210723000120 31 125 9.7 0.0 0.00 0.00 0.03 71 1019.0
20210722234601 32 102 8.0 0.0 0.00 0.00 0.03 69 1018.8
20210722233040 33 123 8.0 0.0 0.00 0.00 0.03 66 1018.9
20210722231535 33 134 9.7 0.0 0.00 0.00 0.03 64 1018.8
20210722230118 34 130 9.7 0.0 0.00 0.00 0.03 62 1018.5
20210722224534 35 123 9.7 0.0 0.00 0.00 0.03 59 1018.5
20210722223054 35 131 9.7 0.0 0.00 0.00 0.03 55 1018.4
20210722221541 36 142 8.0 0.0 0.00 0.00 0.03 55 1018.5
20210722220054 35 133 9.7 0.0 0.00 0.00 0.03 55 1018.4
20210722214635 37 140 9.7 0.0 0.00 0.00 0.03 51 1018.7
20210722213050 37 93 9.7 0.0 0.00 0.00 0.03 51 1018.5
20210722211552 37 133 9.7 0.0 0.00 0.00 0.03 51 1018.5
20210722210101 38 123 9.7 0.0 0.00 0.00 0.03 49 1018.5
20210722204602 38 136 9.7 0.0 0.00 0.00 0.03 48 1018.5
20210722203051 37 116 9.7 0.0 0.00 0.00 0.03 49 1018.4
20210722201528 38 125 11.3 0.0 0.00 0.00 0.03 49 1018.6
20210722200105 37 134 8.0 0.0 0.00 0.00 0.03 50 1018.8
20210722194515 38 115 9.7 0.0 0.00 0.00 0.03 49 1018.9
20210722193033 38 113 11.3 0.0 0.00 0.00 0.03 50 1019.2
20210722191516 37 115 8.0 0.0 0.00 0.00 0.03 52 1019.2
20210722190033 36 103 6.4 0.0 0.00 0.00 0.03 52 1019.4
20210722184538 38 114 8.0 0.0 0.00 0.00 0.03 49 1019.6
20210722183017 37 128 11.3 0.0 0.00 0.00 0.03 49 1019.8
20210722181548 37 139 9.7 0.0 0.00 0.00 0.03 50 1019.9
20210722180007 37 126 8.0 0.0 0.00 0.00 0.03 50 1019.8
20210722174505 36 119 3.2 0.0 0.00 0.00 0.03 56 1019.9
20210722173210 35 18 3.2 0.0 0.00 0.00 0.03 51 1020.2
20210722171611 35 69 3.2 0.0 0.00 0.00 0.03 54 1020.3
20210722170218 33 328 4.8 0.0 0.00 0.00 0.03 57 1020.5
20210722164608 33 304 4.8 0.0 0.00 0.00 0.03 57 1020.6
20210722163159 35 291 3.2 0.0 0.00 0.00 0.03 57 1020.7
20210722161721 33 317 3.2 0.0 0.00 0.00 0.03 56 1020.8
20210722160147 33 346 4.8 0.0 0.00 0.00 0.03 56 1020.9
20210722154708 33 28 4.8 0.0 0.00 0.00 0.03 62 1020.9
20210722153112 32 10 3.2 0.0 0.00 0.00 0.03 62 1020.9
20210722151721 32 348 1.6 0.0 0.00 0.00 0.03 60 1020.9